Dewpoint
-11 -9 -7 -6 -9 -8 -9 -8 -7 -8 -9 -11 -12 -13 -3 -6 -1 -4 -2 -1 -1 -1 -0 -2 0 0 -0 -0 -1 -2 -16 -17
-7 -8 -8 -7 -5 -5 -4 -5 -5 -5 -7 -9 -7 -8 -15 -11 -7 -2 -1 -1 -1 -1 -0 0 -2 -5 -6 -4 -4 -7 -9 -10
-7 -9 -7 -5 -4 -5 -3 -4 -4 -4 -5 -5 -5 -7 -12 -17 -11 -3 -2 -2 -1 -1 -1 -4 -7 -7 -9 -10 -12 -15 -11 -8
-8 -7 -6 -3 -3 -4 -5 -4 -4 -4 -4 -5 -5 -8 -10 -14 -17 -12 -10 -5 -5 -5 -7 -7 -7 -9 -15 -15 -14 -14 -13 -10
-7 -7 -6 -4 -3 -5 -5 -5 -4 -4 -5 -5 -7 -7 -8 -12 -20 -20 -14 -8 -6 -6 -6 -7 -9 -13 -15 -13 -11 -10 -9 -11
-4 -8 -7 -6 -5 -5 -6 -8 -6 -5 -5 -8 -7 -6 -8 -12 -14 -21 -18 -9 -6 -5 -6 -7 -12 -12 -11 -10 -8 -8 -6 -5
-3 -6 -6 -6 -5 -4 -6 -10 -10 -8 -9 -9 -7 -6 -8 -9 -9 -13 -18 -9 -6 -5 -6 -9 -10 -10 -9 -9 -9 -7 -7 -6
-2 -6 -6 -6 -5 -4 -6 -9 -9 -8 -8 -8 -7 -7 -7 -7 -7 -10 -16 -11 -6 -6 -7 -6 -7 -8 -8 -8 -9 -10 -9 -7
-1 -5 -7 -6 -4 -3 -4 -6 -6 -7 -6 -6 -6 -6 -6 -6 -6 -8 -10 -14 -11 -8 -7 -5 -5 -5 -6 -8 -11 -13 -12 -10
-1 -3 -6 -5 -3 -3 -3 -5 -6 -6 -5 -5 -5 -6 -6 -6 -7 -8 -7 -9 -12 -11 -7 -5 -4 -5 -6 -10 -13 -13 -12 -12
-1 -2 -3 -3 -3 -4 -3 -4 -7 -7 -6 -6 -6 -6 -6 -6 -6 -6 -7 -8 -9 -9 -8 -5 -5 -6 -9 -13 -13 -13 -11 -11
-1 -2 -2 -1 -2 -3 -3 -7 -9 -9 -7 -6 -6 -7 -6 -6 -7 -8 -8 -8 -8 -9 -10 -10 -9 -7 -8 -11 -11 -11 -10 -10
-1 -1 -1 -1 -2 -3 -5 -11 -7 -7 -6 -6 -7 -7 -7 -7 -8 -7 -8 -8 -8 -9 -9 -10 -10 -7 -6 -8 -11 -10 -9 -8
-0 -0 -0 -1 -2 -4 -9 -11 -9 -7 -6 -7 -7 -7 -8 -8 -7 -7 -7 -8 -9 -9 -9 -8 -8 -7 -5 -6 -9 -10 -5 -5
-0 -0 -1 -1 -3 -5 -10 -12 -12 -14 -15 -11 -9 -7 -7 -7 -7 -7 -8 -9 -8 -8 -8 -8 -9 -7 -6 -6 -7 -7 -8 -6
-0 -0 -1 -3 -4 -6 -9 -8 -7 -8 -7 -6 -6 -7 -9 -11 -7 -7 -8 -8 -8 -8 -8 -8 -8 -7 -6 -6 -6 -7 -8 -9
-0 -1 -3 -5 -6 -7 -8 -7 -7 -7 -7 -8 -10 -10 -9 -11 -11 -10 -8 -7 -7 -7 -8 -8 -7 -6 -6 -6 -6 -7 -8 -7
-2 -3 -5 -6 -7 -8 -8 -7 -7 -7 -9 -10 -10 -11 -14 -13 -11 -10 -9 -8 -8 -8 -7 -7 -5 -5 -5 -5 -6 -6 -8 -6
-3 -5 -6 -6 -9 -9 -8 -8 -10 -11 -10 -11 -13 -12 -11 -10 -9 -8 -7 -6 -5 -5 -6 -6 -6 -6 -6 -6 -6 -7 -7 -8
-2 -3 -8 -10 -10 -9 -7 -10 -14 -14 -14 -13 -12 -11 -11 -10 -9 -7 -7 -7 -8 -7 -7 -7 -7 -6 -7 -8 -7 -6 -8 -7
Wind_Speed
9 7 6 6 6 9 7 6 6 8 8 6 8 11 7 7 5 10 10 11 11 11 11 12 10 9 8 8 9 3 5 7
8 7 6 6 7 10 9 10 10 11 12 11 14 16 10 6 6 7 9 8 9 9 7 8 10 10 8 7 6 5 5 7
6 6 6 5 6 8 7 8 9 11 14 15 15 17 12 13 9 6 5 8 6 6 6 9 14 13 14 15 16 12 10 9
6 7 5 5 4 4 5 7 8 12 14 15 17 16 14 16 12 12 11 8 9 12 15 15 16 16 16 13 11 8 10 12
9 7 4 3 2 4 7 10 10 13 15 17 20 17 17 16 13 12 10 10 11 13 15 17 18 20 15 11 8 6 3 7
11 9 8 5 4 2 8 11 11 11 16 18 17 18 20 16 17 15 10 11 12 14 17 19 18 11 8 7 7 7 7 7
12 9 6 4 0 4 7 7 8 11 17 16 18 21 21 18 18 19 12 12 12 15 18 19 13 11 10 11 11 12 12 12
12 8 5 1 3 7 10 10 9 12 14 15 17 21 20 22 22 22 15 13 14 16 17 15 16 15 16 17 16 15 16 15
12 8 5 3 5 8 10 12 12 14 14 14 16 20 20 22 24 22 17 15 17 15 14 15 18 20 20 21 22 20 17 18
14 10 7 4 5 9 11 13 13 12 12 15 17 18 19 23 25 23 21 21 16 16 15 14 18 22 26 26 21 17 17 17
16 12 6 4 7 11 11 13 16 14 14 16 17 17 19 21 21 21 22 23 19 18 17 18 21 24 27 25 20 17 17 16
15 10 5 5 8 10 13 14 13 12 12 15 12 14 17 18 20 21 21 23 22 21 17 21 22 22 26 22 19 19 16 14
13 9 6 6 9 14 17 17 17 15 14 12 16 16 18 22 23 19 21 23 22 21 21 20 21 22 23 24 23 13 11 8
11 7 6 9 13 17 18 18 17 16 18 21 21 23 24 25 19 20 18 20 21 22 22 22 25 23 21 18 12 10 1 2
8 5 8 11 16 18 18 16 15 16 16 17 19 21 23 21 23 19 20 21 22 21 22 25 24 22 21 13 5 4 8 4
3 4 9 13 17 21 21 18 19 20 19 20 20 23 24 20 19 23 25 24 26 28 27 26 24 24 24 22 19 17 11 6
2 6 9 13 17 21 19 17 20 21 21 21 24 23 23 25 23 23 22 25 25 26 29 26 26 26 28 26 23 20 20 22
3 6 9 13 18 20 17 18 21 22 23 25 27 27 25 22 22 21 21 25 30 30 32 31 28 28 28 30 29 25 26 24
2 6 11 16 18 17 17 20 22 23 25 27 26 24 24 24 22 25 27 31 31 35 33 36 36 33 27 26 30 29 28 26
6 11 15 16 17 17 20 24 23 24 24 24 24 24 25 26 30 26 30 33 32 32 29 25 26 28 31 31 33 31 29 30
Wind_Direction
147 134 121 104 74 40 46 27 19 18 10 11 9 2 4 348 344 339 341 345 351 353 349 2 350 354 4 1 5 283 195 181
143 128 109 95 77 39 30 19 9 360 359 350 3 349 329 313 332 3 352 346 346 351 356 340 304 321 326 315 298 284 219 194
139 112 104 91 56 28 22 2 353 339 343 337 339 335 328 317 310 327 317 344 338 338 329 298 314 311 310 300 295 286 246 220
137 126 115 84 73 23 346 334 323 326 323 320 317 321 323 329 313 302 300 296 287 296 304 311 309 308 309 299 294 287 256 237
140 149 132 108 52 328 320 307 308 310 310 309 311 321 328 330 325 313 293 276 295 304 305 308 310 310 304 299 297 293 265 232
138 149 164 175 195 305 314 301 301 304 303 303 309 319 326 328 338 327 300 282 294 304 307 313 318 315 305 290 271 261 237 232
152 159 163 143 181 353 338 335 324 314 310 303 310 317 324 333 335 334 308 284 296 301 307 313 312 301 301 302 295 277 262 252
172 181 196 218 348 349 354 352 340 328 328 311 310 323 326 332 331 333 321 284 288 303 310 306 312 317 315 308 303 291 271 260
187 192 225 285 331 343 339 348 342 337 330 312 312 317 321 321 322 325 328 308 285 297 291 301 309 309 306 304 300 293 276 261
193 203 225 262 313 331 333 334 326 321 309 298 295 304 310 312 314 320 323 328 300 300 287 299 297 300 303 307 301 290 278 266
196 204 225 274 313 319 319 317 317 307 304 309 307 306 309 308 309 317 316 320 313 313 286 286 292 300 306 308 301 290 282 268
193 200 228 270 307 317 308 302 313 305 291 293 291 296 298 299 306 308 309 310 311 309 301 288 291 299 308 313 305 304 289 271
191 210 238 285 308 321 319 317 314 298 291 282 290 291 289 299 302 299 300 301 302 303 301 298 298 298 302 310 309 312 282 262
190 219 275 306 324 330 326 318 309 299 294 287 288 291 294 298 290 295 292 291 290 290 293 296 300 289 292 302 319 325 242 214
204 267 301 318 328 332 327 319 313 309 306 302 304 304 306 292 293 284 286 287 284 282 284 288 289 279 281 274 290 298 324 211
227 300 312 322 329 333 331 330 328 325 321 317 308 304 303 304 285 286 288 283 279 283 286 286 276 270 271 270 266 269 264 276
291 309 325 332 331 332 331 324 324 324 325 316 315 313 312 313 305 301 286 281 282 281 281 275 265 258 260 262 260 260 246 240
336 334 332 331 332 328 328 326 328 326 322 320 322 319 313 311 311 303 296 285 280 278 276 268 254 247 250 250 251 241 233 221
10 335 332 331 328 334 336 334 328 325 327 326 317 316 318 317 310 299 293 288 273 275 270 267 266 255 247 242 237 242 233 234
332 328 326 333 342 345 342 335 331 335 334 328 324 320 317 311 314 310 296 293 293 278 267 259 254 243 248 246 236 229 223 224
Height
1525 1527 1528 1529 1529 1529 1528 1527 1526 1526 1525 1524 1523 1523 1521 1520 1520 1518 1517 1515 1513 1512 1511 1510 1509 1508 1507 1506 1505 1503 1503 1504
1525 1526 1528 1528 1529 1529 1528 1527 1526 1525 1524 1523 1522 1522 1520 1518 1517 1517 1517 1515 1514 1512 1511 1509 1505 1505 1505 1504 1502 1502 1502 1502
1524 1526 1526 1527 1528 1528 1527 1527 1526 1524 1523 1522 1521 1521 1519 1517 1515 1514 1512 1512 1511 1510 1508 1505 1504 1503 1502 1501 1499 1500 1501 1501
1524 1525 1525 1526 1527 1527 1527 1527 1525 1524 1523 1521 1521 1520 1517 1515 1513 1512 1510 1509 1507 1506 1505 1503 1502 1500 1499 1498 1497 1497 1497 1498
1522 1524 1525 1525 1526 1526 1526 1525 1524 1523 1521 1520 1519 1517 1515 1513 1511 1509 1507 1505 1504 1503 1502 1500 1499 1497 1496 1495 1494 1494 1494 1494
1522 1524 1525 1526 1527 1527 1526 1524 1523 1522 1521 1518 1516 1515 1514 1511 1509 1506 1504 1502 1501 1500 1499 1497 1495 1494 1493 1492 1491 1490 1490 1490
1521 1523 1524 1525 1526 1526 1524 1523 1522 1521 1518 1516 1514 1512 1511 1509 1506 1504 1502 1500 1498 1497 1496 1494 1493 1490 1489 1489 1489 1488 1488 1487
1519 1522 1523 1524 1525 1523 1522 1521 1519 1518 1515 1513 1511 1510 1508 1505 1503 1502 1499 1497 1495 1493 1492 1490 1489 1488 1487 1486 1485 1484 1484 1484
1518 1520 1522 1523 1523 1521 1520 1518 1517 1515 1512 1510 1508 1506 1504 1502 1500 1498 1496 1494 1492 1490 1489 1487 1486 1485 1483 1482 1480 1479 1479 1479
1517 1518 1517 1520 1520 1519 1518 1515 1514 1512 1510 1507 1505 1503 1500 1498 1496 1494 1492 1490 1488 1486 1485 1484 1483 1481 1478 1477 1475 1474 1473 1473
1514 1515 1516 1517 1517 1516 1516 1514 1512 1510 1507 1504 1502 1500 1497 1494 1492 1490 1488 1486 1485 1483 1481 1480 1478 1476 1474 1472 1470 1469 1468 1468
1514 1514 1515 1515 1516 1514 1513 1511 1509 1506 1503 1500 1498 1496 1493 1490 1488 1485 1483 1481 1480 1478 1476 1475 1474 1472 1470 1467 1466 1464 1463 1463
1513 1514 1514 1514 1512 1511 1509 1507 1505 1503 1500 1497 1495 1492 1490 1486 1483 1481 1479 1476 1474 1473 1471 1470 1469 1468 1466 1463 1461 1460 1459 1458
1512 1512 1513 1512 1510 1508 1506 1503 1501 1499 1496 1493 1491 1488 1485 1481 1478 1475 1473 1471 1469 1467 1466 1464 1464 1464 1464 1463 1459 1458 1457 1456
1512 1513 1512 1510 1507 1506 1503 1501 1498 1494 1491 1489 1486 1483 1479 1475 1472 1469 1467 1464 1462 1461 1460 1458 1457 1457 1458 1461 1460 1458 1457 1456
1513 1512 1510 1508 1505 1502 1500 1497 1493 1490 1488 1485 1482 1477 1472 1468 1465 1463 1460 1457 1454 1452 1451 1450 1450 1450 1451 1453 1454 1457 1457 1456
1513 1511 1508 1505 1502 1500 1497 1494 1491 1488 1485 1479 1475 1469 1465 1462 1457 1453 1451 1448 1446 1443 1442 1440 1440 1442 1443 1445 1447 1450 1451 1454
1512 1510 1507 1504 1502 1499 1495 1492 1488 1484 1479 1473 1468 1463 1456 1452 1448 1444 1442 1438 1435 1433 1432 1431 1431 1432 1433 1435 1438 1441 1443 1447
1512 1509 1506 1504 1501 1497 1494 1490 1485 1480 1475 1469 1459 1453 1450 1446 1442 1437 1433 1430 1425 1422 1420 1419 1419 1419 1421 1424 1428 1431 1437 1440
1512 1509 1506 1503 1499 1496 1491 1487 1481 1477 1471 1462 1455 1450 1444 1438 1434 1429 1422 1417 1411 1407 1405 1405 1406 1408 1411 1414 1419 1422 1428 1433